owner,sensor,date,latitude,longitude,vertical_datum,sea_water_temperature,qcFlag
Shell,ioos:station:wmo:42851:1,2021-10-15T21:32:00Z,28.1504,-89.0812,10.0,29.1,11111222
Shell,ioos:station:wmo:42851:1,2021-10-15T21:42:00Z,28.1504,-89.0812,10.0,28.9,11111222
Shell,ioos:station:wmo:42851:1,2021-10-15T21:52:00Z,28.1504,-89.0812,10.0,28.8,11111222
Shell,ioos:station:wmo:42851:1,2021-10-15T22:02:00Z,28.1504,-89.0812,10.0,28.7,11111222
Shell,ioos:station:wmo:42851:1,2021-10-15T22:12:00Z,28.1504,-89.0812,10.0,28.7,11111222
Shell,ioos:station:wmo:42851:1,2021-10-15T22:22:00Z,28.1504,-89.0812,10.0,28.7,11111222
Shell,ioos:station:wmo:42851:1,2021-10-15T22:32:00Z,28.1504,-89.0812,10.0,28.6,11111222
Shell,ioos:station:wmo:42851:1,2021-10-15T22:42:00Z,28.1504,-89.0812,10.0,28.6,11111222
Shell,ioos:station:wmo:42851:1,2021-10-15T22:52:00Z,28.1504,-89.0812,10.0,28.6,11111222
Shell,ioos:station:wmo:42851:1,2021-10-15T23:02:00Z,28.1504,-89.0812,10.0,28.6,11111222
Shell,ioos:station:wmo:42851:1,2021-10-15T23:12:00Z,28.1504,-89.0812,10.0,28.5,11111222
Shell,ioos:station:wmo:42851:1,2021-10-15T23:22:00Z,28.1504,-89.0812,10.0,28.5,11111222
Shell,ioos:station:wmo:42851:1,2021-10-15T23:32:00Z,28.1504,-89.0812,10.0,28.5,11111222
Shell,ioos:station:wmo:42851:1,2021-10-15T23:42:00Z,28.1504,-89.0812,10.0,28.5,11111222
Shell,ioos:station:wmo:42851:1,2021-10-15T23:52:00Z,28.1504,-89.0812,10.0,28.5,11111222
Shell,ioos:station:wmo:42851:1,2021-10-16T00:02:00Z,28.1504,-89.0812,10.0,28.6,11111222
Shell,ioos:station:wmo:42851:1,2021-10-16T00:12:00Z,28.1504,-89.0812,10.0,28.6,11111222
Shell,ioos:station:wmo:42851:1,2021-10-16T03:00:00Z,28.1507,-89.0821,10.0,28.5,11111222
Shell,ioos:station:wmo:42851:1,2021-10-16T03:10:00Z,28.1500,-89.0820,10.0,28.4,11111222
Shell,ioos:station:wmo:42851:1,2021-10-16T03:20:00Z,28.1500,-89.0822,10.0,28.4,11111222
Shell,ioos:station:wmo:42851:1,2021-10-16T03:30:00Z,28.1500,-89.0822,10.0,28.4,11111222
Shell,ioos:station:wmo:42851:1,2021-10-16T03:40:00Z,28.1500,-89.0822,10.0,28.4,11111222
Shell,ioos:station:wmo:42851:1,2021-10-16T03:50:00Z,28.1500,-89.0822,10.0,28.4,11111222
Shell,ioos:station:wmo:42851:1,2021-10-16T04:00:00Z,28.1500,-89.0822,10.0,28.4,11111222
Shell,ioos:station:wmo:42851:1,2021-10-16T04:10:00Z,28.1500,-89.0822,10.0,28.4,11111222
Shell,ioos:station:wmo:42851:1,2021-10-16T04:20:00Z,28.1498,-89.0822,10.0,28.4,11111222
Shell,ioos:station:wmo:42851:1,2021-10-16T04:30:00Z,28.1500,-89.0824,10.0,28.4,11111222
Shell,ioos:station:wmo:42851:1,2021-10-16T04:40:00Z,28.1500,-89.0823,10.0,28.4,11111222
Shell,ioos:station:wmo:42851:1,2021-10-16T04:50:00Z,28.1502,-89.0822,10.0,28.4,11111222
Shell,ioos:station:wmo:42851:1,2021-10-16T05:00:00Z,28.1501,-89.0825,10.0,28.4,11111222
Shell,ioos:station:wmo:42851:1,2021-10-16T05:10:00Z,28.1500,-89.0823,10.0,28.4,11111222
Shell,ioos:station:wmo:42851:1,2021-10-16T05:20:00Z,28.1502,-89.0815,10.0,28.4,11111222
Shell,ioos:station:wmo:42851:1,2021-10-16T05:30:00Z,28.1508,-89.0820,10.0,28.4,11111222
Shell,ioos:station:wmo:42851:1,2021-10-16T05:40:00Z,28.1502,-89.0825,10.0,28.4,11111222
Shell,ioos:station:wmo:42851:1,2021-10-16T05:50:00Z,28.1504,-89.0825,10.0,28.4,11111222
Shell,ioos:station:wmo:42851:1,2021-10-16T06:00:00Z,28.1502,-89.0819,10.0,28.4,11111222
Shell,ioos:station:wmo:42851:1,2021-10-16T06:10:00Z,28.1499,-89.0812,10.0,28.4,11111222
Shell,ioos:station:wmo:42851:1,2021-10-16T06:20:00Z,28.1499,-89.0812,10.0,28.4,11111222
Shell,ioos:station:wmo:42851:1,2021-10-16T06:30:00Z,28.1499,-89.0812,10.0,28.4,11111222
Shell,ioos:station:wmo:42851:1,2021-10-16T06:40:00Z,28.1499,-89.0812,10.0,28.4,11111222
Shell,ioos:station:wmo:42851:1,2021-10-16T06:50:00Z,28.1499,-89.0812,10.0,28.4,11111222
Shell,ioos:station:wmo:42851:1,2021-10-16T07:00:00Z,28.1499,-89.0812,10.0,28.4,11111222
Shell,ioos:station:wmo:42851:1,2021-10-16T07:10:00Z,28.1497,-89.0807,10.0,28.4,11111222
Shell,ioos:station:wmo:42851:1,2021-10-16T07:20:00Z,28.1499,-89.0803,10.0,28.4,11111222
Shell,ioos:station:wmo:42851:1,2021-10-16T07:30:00Z,28.1499,-89.0803,10.0,28.4,11111222
Shell,ioos:station:wmo:42851:1,2021-10-16T07:40:00Z,28.1499,-89.0803,10.0,28.4,11111222
Shell,ioos:station:wmo:42851:1,2021-10-16T07:50:00Z,28.1500,-89.0803,10.0,28.4,11111222
Shell,ioos:station:wmo:42851:1,2021-10-16T08:00:00Z,28.1499,-89.0803,10.0,28.4,11111222
Shell,ioos:station:wmo:42851:1,2021-10-16T08:10:00Z,28.1499,-89.0803,10.0,28.4,11111222
Shell,ioos:station:wmo:42851:1,2021-10-16T08:20:00Z,28.1499,-89.0803,10.0,28.4,11111222
Shell,ioos:station:wmo:42851:1,2021-10-16T08:30:00Z,28.1499,-89.0803,10.0,28.4,11111222
Shell,ioos:station:wmo:42851:1,2021-10-16T08:40:00Z,28.1500,-89.0803,10.0,28.4,11111222
Shell,ioos:station:wmo:42851:1,2021-10-16T08:50:00Z,28.1499,-89.0803,10.0,28.4,11111222
Shell,ioos:station:wmo:42851:1,2021-10-16T09:00:00Z,28.1499,-89.0803,10.0,28.4,11111222
Shell,ioos:station:wmo:42851:1,2021-10-16T09:10:00Z,28.1499,-89.0803,10.0,28.3,11111222
Shell,ioos:station:wmo:42851:1,2021-10-16T09:20:00Z,28.1500,-89.0802,10.0,28.3,11111222
Shell,ioos:station:wmo:42851:1,2021-10-16T09:30:00Z,28.1500,-89.0802,10.0,28.4,11111222
Shell,ioos:station:wmo:42851:1,2021-10-16T09:40:00Z,28.1500,-89.0802,10.0,28.3,11111222
Shell,ioos:station:wmo:42851:1,2021-10-16T09:50:00Z,28.1500,-89.0802,10.0,28.3,11111222
Shell,ioos:station:wmo:42851:1,2021-10-16T10:00:00Z,28.1500,-89.0803,10.0,28.4,11111222
Shell,ioos:station:wmo:42851:1,2021-10-16T10:10:00Z,28.1500,-89.0802,10.0,28.4,11111222
Shell,ioos:station:wmo:42851:1,2021-10-16T10:20:00Z,28.1500,-89.0802,10.0,28.4,11111222
Shell,ioos:station:wmo:42851:1,2021-10-16T10:30:00Z,28.1500,-89.0803,10.0,28.4,11111222
Shell,ioos:station:wmo:42851:1,2021-10-16T10:40:00Z,28.1500,-89.0803,10.0,28.4,11111222
Shell,ioos:station:wmo:42851:1,2021-10-16T10:50:00Z,28.1500,-89.0803,10.0,28.4,11111222
Shell,ioos:station:wmo:42851:1,2021-10-16T11:00:00Z,28.1500,-89.0803,10.0,28.4,11111222
Shell,ioos:station:wmo:42851:1,2021-10-16T11:10:00Z,28.1500,-89.0803,10.0,28.4,11111222
Shell,ioos:station:wmo:42851:1,2021-10-16T11:20:00Z,28.1502,-89.0802,10.0,28.4,11111222
Shell,ioos:station:wmo:42851:1,2021-10-16T11:30:00Z,28.1502,-89.0802,10.0,28.4,11111222
Shell,ioos:station:wmo:42851:1,2021-10-16T11:40:00Z,28.1499,-89.0803,10.0,28.4,11111222
Shell,ioos:station:wmo:42851:1,2021-10-16T11:50:00Z,28.1499,-89.0803,10.0,28.4,11111222
Shell,ioos:station:wmo:42851:1,2021-10-16T12:00:00Z,28.1499,-89.0803,10.0,28.4,11111222
Shell,ioos:station:wmo:42851:1,2021-10-16T12:10:00Z,28.1499,-89.0803,10.0,28.4,11111222
Shell,ioos:station:wmo:42851:1,2021-10-16T12:20:00Z,28.1499,-89.0803,10.0,28.3,11111222
Shell,ioos:station:wmo:42851:1,2021-10-16T12:30:00Z,28.1499,-89.0803,10.0,28.3,11111222
Shell,ioos:station:wmo:42851:1,2021-10-16T12:40:00Z,28.1499,-89.0803,10.0,28.3,11111222
Shell,ioos:station:wmo:42851:1,2021-10-16T12:50:00Z,28.1499,-89.0803,10.0,28.3,11111222
Shell,ioos:station:wmo:42851:1,2021-10-16T13:00:00Z,28.1499,-89.0803,10.0,28.3,11111222
Shell,ioos:station:wmo:42851:1,2021-10-16T13:10:00Z,28.1499,-89.0803,10.0,28.4,11111222
Shell,ioos:station:wmo:42851:1,2021-10-16T13:20:00Z,28.1499,-89.0803,10.0,28.4,11111222
Shell,ioos:station:wmo:42851:1,2021-10-16T13:30:00Z,28.1499,-89.0803,10.0,28.4,11111222
Shell,ioos:station:wmo:42851:1,2021-10-16T13:40:00Z,28.1499,-89.0803,10.0,28.4,11111222
Shell,ioos:station:wmo:42851:1,2021-10-16T13:50:00Z,28.1498,-89.0805,10.0,28.4,11111222
Shell,ioos:station:wmo:42851:1,2021-10-16T14:00:00Z,28.1498,-89.0804,10.0,28.4,11111222
Shell,ioos:station:wmo:42851:1,2021-10-16T14:10:00Z,28.1498,-89.0804,10.0,28.4,11111222
Shell,ioos:station:wmo:42851:1,2021-10-16T14:20:00Z,28.1498,-89.0805,10.0,28.4,11111222
Shell,ioos:station:wmo:42851:1,2021-10-16T14:30:00Z,28.1498,-89.0805,10.0,28.4,11111222
Shell,ioos:station:wmo:42851:1,2021-10-16T14:40:00Z,28.1498,-89.0804,10.0,28.4,11111222
Shell,ioos:station:wmo:42851:1,2021-10-16T14:50:00Z,28.1498,-89.0804,10.0,28.4,11111222
Shell,ioos:station:wmo:42851:1,2021-10-16T15:00:00Z,28.1498,-89.0805,10.0,28.4,11111222
Shell,ioos:station:wmo:42851:1,2021-10-16T15:10:00Z,28.1498,-89.0804,10.0,28.4,11111222
Shell,ioos:station:wmo:42851:1,2021-10-16T15:20:00Z,28.1498,-89.0805,10.0,28.4,11111222
Shell,ioos:station:wmo:42851:1,2021-10-16T15:30:00Z,28.1498,-89.0805,10.0,28.4,11111222
Shell,ioos:station:wmo:42851:1,2021-10-16T15:40:00Z,28.1498,-89.0804,10.0,28.4,11111222
Shell,ioos:station:wmo:42851:1,2021-10-16T15:50:00Z,28.1498,-89.0805,10.0,28.4,11111222
Shell,ioos:station:wmo:42851:1,2021-10-16T16:00:00Z,28.1498,-89.0805,10.0,28.4,11111222
Shell,ioos:station:wmo:42851:1,2021-10-16T16:10:00Z,28.1498,-89.0805,10.0,28.4,11111222
Shell,ioos:station:wmo:42851:1,2021-10-16T16:20:00Z,28.1498,-89.0805,10.0,28.4,11111222
Shell,ioos:station:wmo:42851:1,2021-10-16T16:30:00Z,28.1498,-89.0805,10.0,28.4,11111222
Shell,ioos:station:wmo:42851:1,2021-10-16T16:40:00Z,28.1498,-89.0805,10.0,28.4,11111222
Shell,ioos:station:wmo:42851:1,2021-10-16T16:50:00Z,28.1498,-89.0804,10.0,28.4,11111222
Shell,ioos:station:wmo:42851:1,2021-10-16T17:00:00Z,28.1498,-89.0804,10.0,28.4,11111222
Shell,ioos:station:wmo:42851:1,2021-10-16T17:10:00Z,28.1498,-89.0804,10.0,28.4,11111222
Shell,ioos:station:wmo:42851:1,2021-10-16T17:20:00Z,28.1498,-89.0805,10.0,28.4,11111222
Shell,ioos:station:wmo:42851:1,2021-10-16T17:30:00Z,28.1498,-89.0805,10.0,28.4,11111222
Shell,ioos:station:wmo:42851:1,2021-10-16T17:40:00Z,28.1498,-89.0805,10.0,28.4,11111222
Shell,ioos:station:wmo:42851:1,2021-10-16T17:50:00Z,28.1498,-89.0804,10.0,28.4,11111222
Shell,ioos:station:wmo:42851:1,2021-10-16T18:00:00Z,28.1498,-89.0804,10.0,28.4,11111222
Shell,ioos:station:wmo:42851:1,2021-10-16T18:10:00Z,28.1498,-89.0804,10.0,28.4,11111222
Shell,ioos:station:wmo:42851:1,2021-10-16T18:20:00Z,28.1498,-89.0804,10.0,28.5,11111222
Shell,ioos:station:wmo:42851:1,2021-10-16T18:30:00Z,28.1498,-89.0804,10.0,28.5,11111222
Shell,ioos:station:wmo:42851:1,2021-10-16T18:40:00Z,28.1498,-89.0804,10.0,28.5,11111222
Shell,ioos:station:wmo:42851:1,2021-10-16T18:50:00Z,28.1498,-89.0804,10.0,28.5,11111222
Shell,ioos:station:wmo:42851:1,2021-10-16T19:00:00Z,28.1498,-89.0804,10.0,28.5,11111222
Shell,ioos:station:wmo:42851:1,2021-10-16T19:10:00Z,28.1498,-89.0805,10.0,28.5,11111222
Shell,ioos:station:wmo:42851:1,2021-10-16T19:20:00Z,28.1498,-89.0805,10.0,28.4,11111222
Shell,ioos:station:wmo:42851:1,2021-10-16T19:30:00Z,28.1498,-89.0804,10.0,28.4,11111222
Shell,ioos:station:wmo:42851:1,2021-10-16T19:40:00Z,28.1498,-89.0804,10.0,28.4,11111222
Shell,ioos:station:wmo:42851:1,2021-10-16T19:50:00Z,28.1498,-89.0804,10.0,28.4,11111222
Shell,ioos:station:wmo:42851:1,2021-10-16T20:00:00Z,28.1498,-89.0804,10.0,28.4,11111222
Shell,ioos:station:wmo:42851:1,2021-10-16T20:10:00Z,28.1498,-89.0805,10.0,28.4,11111222
Shell,ioos:station:wmo:42851:1,2021-10-16T20:20:00Z,28.1498,-89.0804,10.0,28.4,11111222
Shell,ioos:station:wmo:42851:1,2021-10-16T20:30:00Z,28.1498,-89.0804,10.0,28.4,11111222
Shell,ioos:station:wmo:42851:1,2021-10-16T20:40:00Z,28.1498,-89.0804,10.0,28.4,11111222
Shell,ioos:station:wmo:42851:1,2021-10-16T20:50:00Z,28.1498,-89.0805,10.0,28.4,11111222
Shell,ioos:station:wmo:42851:1,2021-10-16T21:00:00Z,28.1498,-89.0804,10.0,28.4,11111222
Shell,ioos:station:wmo:42851:1,2021-10-16T21:10:00Z,28.1498,-89.0804,10.0,28.4,11111222
Shell,ioos:station:wmo:42851:1,2021-10-16T21:20:00Z,28.1498,-89.0804,10.0,28.4,11111222
Shell,ioos:station:wmo:42851:1,2021-10-16T21:30:00Z,28.1498,-89.0804,10.0,28.4,11111222
Shell,ioos:station:wmo:42851:1,2021-10-16T21:40:00Z,28.1498,-89.0804,10.0,28.4,11111222
Shell,ioos:station:wmo:42851:1,2021-10-16T21:50:00Z,28.1498,-89.0804,10.0,28.4,11111222
Shell,ioos:station:wmo:42851:1,2021-10-16T22:00:00Z,28.1498,-89.0804,10.0,28.4,11111222
Shell,ioos:station:wmo:42851:1,2021-10-16T22:10:00Z,28.1497,-89.0806,10.0,28.4,11111222
Shell,ioos:station:wmo:42851:1,2021-10-16T22:20:00Z,28.1497,-89.0806,10.0,28.4,11111222
Shell,ioos:station:wmo:42851:1,2021-10-16T22:30:00Z,28.1497,-89.0806,10.0,28.4,11111222
Shell,ioos:station:wmo:42851:1,2021-10-16T22:40:00Z,28.1497,-89.0805,10.0,28.4,11111222
Shell,ioos:station:wmo:42851:1,2021-10-16T22:50:00Z,28.1497,-89.0806,10.0,28.4,11111222
Shell,ioos:station:wmo:42851:1,2021-10-16T23:00:00Z,28.1497,-89.0806,10.0,28.4,11111222
Shell,ioos:station:wmo:42851:1,2021-10-16T23:10:00Z,28.1497,-89.0806,10.0,28.4,11111222
Shell,ioos:station:wmo:42851:1,2021-10-16T23:20:00Z,28.1497,-89.0806,10.0,28.4,11111222
Shell,ioos:station:wmo:42851:1,2021-10-16T23:30:00Z,28.1497,-89.0806,10.0,28.4,11111222
Shell,ioos:station:wmo:42851:1,2021-10-16T23:40:00Z,28.1497,-89.0806,10.0,28.4,11111222
Shell,ioos:station:wmo:42851:1,2021-10-16T23:50:00Z,28.1497,-89.0806,10.0,28.4,11111222
Shell,ioos:station:wmo:42851:1,2021-10-17T00:00:00Z,28.1497,-89.0806,10.0,28.4,11111222
Shell,ioos:station:wmo:42851:1,2021-10-17T00:10:00Z,28.1497,-89.0806,10.0,28.4,11111222
Shell,ioos:station:wmo:42851:1,2021-10-17T00:20:00Z,28.1497,-89.0806,10.0,28.4,11111222
Shell,ioos:station:wmo:42851:1,2021-10-17T00:30:00Z,28.1497,-89.0806,10.0,28.3,11111222
Shell,ioos:station:wmo:42851:1,2021-10-17T00:40:00Z,28.1497,-89.0806,10.0,28.3,11111222
Shell,ioos:station:wmo:42851:1,2021-10-17T00:50:00Z,28.1497,-89.0806,10.0,28.3,11111222
Shell,ioos:station:wmo:42851:1,2021-10-17T01:00:00Z,28.1497,-89.0806,10.0,28.3,11111222
Shell,ioos:station:wmo:42851:1,2021-10-17T01:10:00Z,28.1497,-89.0806,10.0,28.3,11111222
Shell,ioos:station:wmo:42851:1,2021-10-17T01:20:00Z,28.1497,-89.0806,10.0,28.3,11111222
Shell,ioos:station:wmo:42851:1,2021-10-17T01:30:00Z,28.1497,-89.0806,10.0,28.3,11111222
Shell,ioos:station:wmo:42851:1,2021-10-17T01:40:00Z,28.1497,-89.0806,10.0,28.3,11111222
Shell,ioos:station:wmo:42851:1,2021-10-17T01:50:00Z,28.1497,-89.0806,10.0,28.2,11111222
Shell,ioos:station:wmo:42851:1,2021-10-17T02:00:00Z,28.1497,-89.0806,10.0,28.2,11111222
Shell,ioos:station:wmo:42851:1,2021-10-17T02:10:00Z,28.1497,-89.0806,10.0,28.2,11111222
Shell,ioos:station:wmo:42851:1,2021-10-17T02:20:00Z,28.1497,-89.0806,10.0,28.2,11111222
Shell,ioos:station:wmo:42851:1,2021-10-17T02:30:00Z,28.1497,-89.0806,10.0,28.2,11111222
Shell,ioos:station:wmo:42851:1,2021-10-17T02:40:00Z,28.1497,-89.0806,10.0,28.2,11111222
Shell,ioos:station:wmo:42851:1,2021-10-17T02:50:00Z,28.1498,-89.0810,10.0,28.2,11111222
Shell,ioos:station:wmo:42851:1,2021-10-17T03:00:00Z,28.1499,-89.0816,10.0,28.2,11111222
Shell,ioos:station:wmo:42851:1,2021-10-17T03:10:00Z,28.1500,-89.0820,10.0,28.2,11111222
Shell,ioos:station:wmo:42851:1,2021-10-17T03:20:00Z,28.1500,-89.0820,10.0,28.2,11111222
Shell,ioos:station:wmo:42851:1,2021-10-17T03:30:00Z,28.1500,-89.0821,10.0,28.2,11111222
Shell,ioos:station:wmo:42851:1,2021-10-17T03:40:00Z,28.1500,-89.0821,10.0,28.2,11111222
Shell,ioos:station:wmo:42851:1,2021-10-17T03:50:00Z,28.1500,-89.0821,10.0,28.2,11111222
Shell,ioos:station:wmo:42851:1,2021-10-17T04:00:00Z,28.1500,-89.0821,10.0,28.2,11111222
Shell,ioos:station:wmo:42851:1,2021-10-17T04:10:00Z,28.1500,-89.0821,10.0,28.2,11111222
Shell,ioos:station:wmo:42851:1,2021-10-17T04:20:00Z,28.1500,-89.0821,10.0,28.2,11111222
Shell,ioos:station:wmo:42851:1,2021-10-17T04:30:00Z,28.1500,-89.0821,10.0,28.2,11111222
Shell,ioos:station:wmo:42851:1,2021-10-17T04:40:00Z,28.1500,-89.0821,10.0,28.2,11111222
Shell,ioos:station:wmo:42851:1,2021-10-17T04:50:00Z,28.1500,-89.0821,10.0,28.2,11111222
Shell,ioos:station:wmo:42851:1,2021-10-17T05:00:00Z,28.1500,-89.0821,10.0,28.2,11111222
Shell,ioos:station:wmo:42851:1,2021-10-17T05:10:00Z,28.1500,-89.0821,10.0,28.2,11111222
Shell,ioos:station:wmo:42851:1,2021-10-17T05:20:00Z,28.1500,-89.0821,10.0,28.2,11111222
Shell,ioos:station:wmo:42851:1,2021-10-17T05:30:00Z,28.1500,-89.0821,10.0,28.2,11111222
Shell,ioos:station:wmo:42851:1,2021-10-17T05:40:00Z,28.1500,-89.0821,10.0,28.2,11111222
Shell,ioos:station:wmo:42851:1,2021-10-17T05:50:00Z,28.1500,-89.0821,10.0,28.2,11111222
Shell,ioos:station:wmo:42851:1,2021-10-17T06:00:00Z,28.1500,-89.0821,10.0,28.2,11111222
Shell,ioos:station:wmo:42851:1,2021-10-17T06:10:00Z,28.1500,-89.0821,10.0,28.2,11111222
Shell,ioos:station:wmo:42851:1,2021-10-17T06:20:00Z,28.1500,-89.0821,10.0,28.2,11111222
Shell,ioos:station:wmo:42851:1,2021-10-17T06:30:00Z,28.1499,-89.0819,10.0,28.2,11111222
Shell,ioos:station:wmo:42851:1,2021-10-17T06:40:00Z,28.1499,-89.0818,10.0,28.2,11111222
Shell,ioos:station:wmo:42851:1,2021-10-17T06:50:00Z,28.1499,-89.0818,10.0,28.2,11111222
Shell,ioos:station:wmo:42851:1,2021-10-17T07:00:00Z,28.1500,-89.0818,10.0,28.2,11111222
Shell,ioos:station:wmo:42851:1,2021-10-17T07:10:00Z,28.1499,-89.0818,10.0,28.2,11111222
Shell,ioos:station:wmo:42851:1,2021-10-17T07:20:00Z,28.1500,-89.0818,10.0,28.2,11111222
Shell,ioos:station:wmo:42851:1,2021-10-17T07:30:00Z,28.1500,-89.0817,10.0,28.2,11111222
Shell,ioos:station:wmo:42851:1,2021-10-17T07:40:00Z,28.1500,-89.0817,10.0,28.2,11111222
Shell,ioos:station:wmo:42851:1,2021-10-17T07:50:00Z,28.1500,-89.0818,10.0,28.2,11111222
Shell,ioos:station:wmo:42851:1,2021-10-17T08:00:00Z,28.1500,-89.0817,10.0,28.2,11111222
Shell,ioos:station:wmo:42851:1,2021-10-17T08:10:00Z,28.1499,-89.0817,10.0,28.2,11111222
Shell,ioos:station:wmo:42851:1,2021-10-17T08:20:00Z,28.1500,-89.0819,10.0,28.2,11111222
Shell,ioos:station:wmo:42851:1,2021-10-17T08:30:00Z,28.1500,-89.0820,10.0,28.2,11111222
Shell,ioos:station:wmo:42851:1,2021-10-17T08:40:00Z,28.1500,-89.0820,10.0,28.2,11111222
Shell,ioos:station:wmo:42851:1,2021-10-17T08:50:00Z,28.1500,-89.0820,10.0,28.2,11111222
Shell,ioos:station:wmo:42851:1,2021-10-17T09:00:00Z,28.1500,-89.0820,10.0,28.2,11111222
Shell,ioos:station:wmo:42851:1,2021-10-17T09:10:00Z,28.1500,-89.0820,10.0,28.2,11111222
Shell,ioos:station:wmo:42851:1,2021-10-17T09:20:00Z,28.1500,-89.0820,10.0,28.2,11111222
Shell,ioos:station:wmo:42851:1,2021-10-17T09:30:00Z,28.1500,-89.0820,10.0,28.2,11111222
Shell,ioos:station:wmo:42851:1,2021-10-17T09:40:00Z,28.1499,-89.0815,10.0,28.1,11111222
Shell,ioos:station:wmo:42851:1,2021-10-17T09:50:00Z,28.1498,-89.0809,10.0,28.2,11111222
Shell,ioos:station:wmo:42851:1,2021-10-17T10:00:00Z,28.1497,-89.0806,10.0,28.1,11111222
Shell,ioos:station:wmo:42851:1,2021-10-17T10:10:00Z,28.1497,-89.0806,10.0,28.1,11111222
Shell,ioos:station:wmo:42851:1,2021-10-17T10:20:00Z,28.1497,-89.0806,10.0,28.1,11111222
Shell,ioos:station:wmo:42851:1,2021-10-17T10:30:00Z,28.1497,-89.0806,10.0,28.1,11111222
Shell,ioos:station:wmo:42851:1,2021-10-17T10:40:00Z,28.1497,-89.0806,10.0,28.1,11111222
Shell,ioos:station:wmo:42851:1,2021-10-17T10:50:00Z,28.1497,-89.0806,10.0,28.1,11111222
Shell,ioos:station:wmo:42851:1,2021-10-17T11:00:00Z,28.1497,-89.0806,10.0,28.1,11111222
Shell,ioos:station:wmo:42851:1,2021-10-17T11:10:00Z,28.1497,-89.0806,10.0,28.1,11111222
Shell,ioos:station:wmo:42851:1,2021-10-17T11:20:00Z,28.1497,-89.0806,10.0,28.1,11111222
Shell,ioos:station:wmo:42851:1,2021-10-17T11:30:00Z,28.1497,-89.0807,10.0,28.1,11111222
Shell,ioos:station:wmo:42851:1,2021-10-17T11:40:00Z,28.1497,-89.0807,10.0,28.1,11111222
Shell,ioos:station:wmo:42851:1,2021-10-17T11:50:00Z,28.1497,-89.0807,10.0,28.1,11111222
Shell,ioos:station:wmo:42851:1,2021-10-17T12:00:00Z,28.1497,-89.0807,10.0,28.1,11111222
Shell,ioos:station:wmo:42851:1,2021-10-17T12:10:00Z,28.1497,-89.0807,10.0,28.1,11111222
Shell,ioos:station:wmo:42851:1,2021-10-17T12:20:00Z,28.1497,-89.0807,10.0,28.1,11111222
Shell,ioos:station:wmo:42851:1,2021-10-17T12:30:00Z,28.1497,-89.0807,10.0,28.1,11111222
Shell,ioos:station:wmo:42851:1,2021-10-17T12:40:00Z,28.1497,-89.0807,10.0,28.1,11111222
Shell,ioos:station:wmo:42851:1,2021-10-17T12:50:00Z,28.1497,-89.0807,10.0,28.1,11111222
Shell,ioos:station:wmo:42851:1,2021-10-17T13:00:00Z,28.1497,-89.0807,10.0,28.1,11111222
Shell,ioos:station:wmo:42851:1,2021-10-17T13:10:00Z,28.1497,-89.0807,10.0,28.1,11111222
Shell,ioos:station:wmo:42851:1,2021-10-17T13:20:00Z,28.1497,-89.0807,10.0,28.1,11111222
Shell,ioos:station:wmo:42851:1,2021-10-17T13:30:00Z,28.1497,-89.0807,10.0,28.0,11111222
Shell,ioos:station:wmo:42851:1,2021-10-17T13:40:00Z,28.1497,-89.0807,10.0,28.0,11111222
Shell,ioos:station:wmo:42851:1,2021-10-17T13:50:00Z,28.1497,-89.0807,10.0,28.0,11111222
Shell,ioos:station:wmo:42851:1,2021-10-17T14:00:00Z,28.1497,-89.0807,10.0,28.0,11111222
Shell,ioos:station:wmo:42851:1,2021-10-17T14:10:00Z,28.1497,-89.0807,10.0,28.0,11111222
Shell,ioos:station:wmo:42851:1,2021-10-17T14:20:00Z,28.1497,-89.0807,10.0,28.0,11111222
Shell,ioos:station:wmo:42851:1,2021-10-17T14:30:00Z,28.1497,-89.0807,10.0,28.0,11111222
Shell,ioos:station:wmo:42851:1,2021-10-17T14:40:00Z,28.1497,-89.0807,10.0,28.0,11111222
Shell,ioos:station:wmo:42851:1,2021-10-17T14:50:00Z,28.1497,-89.0807,10.0,28.0,11111222
Shell,ioos:station:wmo:42851:1,2021-10-17T15:00:00Z,28.1497,-89.0807,10.0,28.0,11111222
Shell,ioos:station:wmo:42851:1,2021-10-17T15:10:00Z,28.1497,-89.0807,10.0,28.0,11111222
Shell,ioos:station:wmo:42851:1,2021-10-17T15:20:00Z,28.1497,-89.0807,10.0,28.0,11111222
Shell,ioos:station:wmo:42851:1,2021-10-17T15:30:00Z,28.1497,-89.0807,10.0,28.0,11111222
Shell,ioos:station:wmo:42851:1,2021-10-17T15:40:00Z,28.1497,-89.0807,10.0,28.0,11111222
Shell,ioos:station:wmo:42851:1,2021-10-17T15:50:00Z,28.1497,-89.0807,10.0,28.0,11111222
Shell,ioos:station:wmo:42851:1,2021-10-17T16:00:00Z,28.1497,-89.0807,10.0,28.0,11111222
Shell,ioos:station:wmo:42851:1,2021-10-17T16:10:00Z,28.1497,-89.0807,10.0,28.0,11111222
Shell,ioos:station:wmo:42851:1,2021-10-17T16:20:00Z,28.1497,-89.0807,10.0,28.0,11111222
Shell,ioos:station:wmo:42851:1,2021-10-17T16:30:00Z,28.1497,-89.0807,10.0,28.0,11111222
Shell,ioos:station:wmo:42851:1,2021-10-17T16:40:00Z,28.1497,-89.0807,10.0,28.0,11111222
Shell,ioos:station:wmo:42851:1,2021-10-17T16:50:00Z,28.1497,-89.0807,10.0,28.0,11111222
Shell,ioos:station:wmo:42851:1,2021-10-17T17:00:00Z,28.1497,-89.0807,10.0,28.0,11111222
Shell,ioos:station:wmo:42851:1,2021-10-17T17:10:00Z,28.1497,-89.0807,10.0,28.0,11111222
Shell,ioos:station:wmo:42851:1,2021-10-17T17:20:00Z,28.1497,-89.0807,10.0,28.0,11111222
Shell,ioos:station:wmo:42851:1,2021-10-17T17:30:00Z,28.1497,-89.0807,10.0,28.1,11111222
Shell,ioos:station:wmo:42851:1,2021-10-17T17:40:00Z,28.1497,-89.0807,10.0,28.0,11111222
Shell,ioos:station:wmo:42851:1,2021-10-17T17:50:00Z,28.1497,-89.0807,10.0,28.1,11111222
Shell,ioos:station:wmo:42851:1,2021-10-17T18:00:00Z,28.1497,-89.0807,10.0,28.1,11111222
Shell,ioos:station:wmo:42851:1,2021-10-17T18:10:00Z,28.1497,-89.0807,10.0,28.1,11111222
Shell,ioos:station:wmo:42851:1,2021-10-17T18:20:00Z,28.1497,-89.0807,10.0,28.1,11111222
Shell,ioos:station:wmo:42851:1,2021-10-17T18:30:00Z,28.1497,-89.0807,10.0,28.1,11111222
Shell,ioos:station:wmo:42851:1,2021-10-17T18:40:00Z,28.1497,-89.0807,10.0,28.1,11111222
Shell,ioos:station:wmo:42851:1,2021-10-17T18:50:00Z,28.1497,-89.0807,10.0,28.1,11111222
Shell,ioos:station:wmo:42851:1,2021-10-17T19:00:00Z,28.1497,-89.0807,10.0,28.1,11111222
Shell,ioos:station:wmo:42851:1,2021-10-17T19:10:00Z,28.1497,-89.0807,10.0,28.1,11111222
Shell,ioos:station:wmo:42851:1,2021-10-17T19:20:00Z,28.1497,-89.0807,10.0,28.1,11111222
Shell,ioos:station:wmo:42851:1,2021-10-17T19:30:00Z,28.1497,-89.0807,10.0,28.1,11111222
Shell,ioos:station:wmo:42851:1,2021-10-17T19:40:00Z,28.1497,-89.0807,10.0,28.1,11111222
Shell,ioos:station:wmo:42851:1,2021-10-17T19:50:00Z,28.1497,-89.0807,10.0,28.1,11111222
Shell,ioos:station:wmo:42851:1,2021-10-17T20:00:00Z,28.1497,-89.0807,10.0,28.1,11111222
Shell,ioos:station:wmo:42851:1,2021-10-17T20:10:00Z,28.1497,-89.0807,10.0,28.1,11111222
Shell,ioos:station:wmo:42851:1,2021-10-17T20:20:00Z,28.1497,-89.0807,10.0,28.1,11111222
Shell,ioos:station:wmo:42851:1,2021-10-17T20:30:00Z,28.1497,-89.0807,10.0,28.1,11111222
Shell,ioos:station:wmo:42851:1,2021-10-17T20:40:00Z,28.1497,-89.0807,10.0,28.1,11111222